User: anonymous   Login
Location: Unspecified
(0.0000°N, 0.0000°E)
Time: 18:43:38
(UTC+01:00)
Language:

H-2A R/B - Orbit

View from above orbital plane
View from above orbital plane
View from above satellite
View from above satellite

Ground track
Ground track

The orbit data is extracted from the following two-line orbital elements,

1 28932U 06002B   18017.89982872  .00000547  00000-0  57039-4 0  9996
2 28932  98.2203 314.5669 0088985 328.6806  74.5841 14.91610252649813
Epoch (UTC): 17 January 2018 21:35:45
Eccentricity: 0.0088985
inclination: 98.2203°
perigee height: 531 km
apogee height: 655 km
right ascension of ascending node: 314.5669°
argument of perigee: 328.6806°
revolutions per day: 14.91610252
mean anomaly at epoch: 74.5841°
orbit number at epoch: 64981

The dashed part of the orbit path shows where the satellite is in the earth's shadow,  

DLR